Location: Newark
(42.0700°N, 88.0492°W)
Time: 03:21:26
(UTC+00:00)

ISS - Pass Details

Date: 01 October 2019
Orbit: 411 x 421 km, 51.6° (Epoch: 21 October)

Event Time Altitude Azimuth Distance (km) Brightness Sun altitude
Rises 01:30:53 0° 307° (NW) 2,346 1.3 -22.0°
Reaches altitude 10° 01:33:20 10° 324° (NW) 1,483 -0.3 -22.4°
Enters shadow 01:35:17 20° 358° (N) 1,030 -1.6 -22.7°
